Weather History for Millinocket, ME

Change the Weather History Date:

Monday, February 18, 2013

  Actual Average Record
Temperature  
Mean Temperature 15 °F 19 °F  
Max Temperature 23 °F 30 °F 47 °F (1981)
Min Temperature 7 °F 9 °F -28 °F (1922)
Degree Days  
Heating Degree Days 50 46  
Month to date heating degree days 868 870  
Since 1 July heating degree days 5247 5616  
Cooling Degree Days 0 0  
Month to date cooling degree days 0 0  
Year to date cooling degree days 0 0  
Moisture  
Dew Point 2 °F    
Average Humidity 57    
Maximum Humidity 69    
Minimum Humidity 45    
Precipitation  
Precipitation 0.06 in 0.09 in 0.85 in (1910)
Month to date precipitation 0.76 1.23  
Year to date precipitation 2.10 4.16  
Sea Level Pressure  
Sea Level Pressure 29.47 in    
Wind  
Wind Speed 24 mph (WNW)    
Max Wind Speed 35 mph    
Max Gust Speed 53 mph    
Visibility 4 miles    
Events Snow    
T = Trace of Precipitation, MM = Missing Value Source: NWS Daily Summary

Daily Weather History Graph

Daily Weather History Graph

Search for Another Location

Airport:

Trip Planner

Search our weather history database for the weather conditions in past years. The results will help you decide how hot, cold, wet, or windy it might be!

Date:

Astronomy

Feb. 18, 2013 Rise Set
Actual Time 6:31 AM EST 5:06 PM EST
Civil Twilight 6:01 AM EST 5:36 PM EST
Nautical Twilight 5:26 AM EST 6:11 PM EST
Astronomical Twilight 4:52 AM EST 6:45 PM EST
Moon 10:40 AM EST (2/18) 1:16 AM EST (2/18)
Length of Visible Light 11h 35m
Length of Day
10h 34m
First Quarter, 58% of the Moon is Illuminated
Feb 18
First Quarter
Feb 25
Full
Mar 4
Last Quarter
Mar 11
New
Mar 19
First Quarter

Hourly Weather History & Observations

Time (EST) Temp. Windchill Dew Point Humidity Pressure Visibility Wind Dir Wind Speed Gust Speed Precip Events Conditions
12:12 AM 12.2 °F -8.6 °F 6.8 °F 79% 29.19 in 1.0 mi WNW 27.6 mph 41.4 mph 0.01 in Snow Light Snow
12:53 AM 12.9 °F -8.0 °F 3.9 °F 67% 29.24 in 1.2 mi WNW 28.8 mph 47.2 mph 0.02 in   Overcast
1:00 AM 12.2 °F -7.1 °F 3.2 °F 67% 29.20 in 1.5 mi WNW 23.0 mph 43.7 mph 0.01 in Snow Blowing Snow
1:24 AM 12.2 °F -4.8 °F 3.2 °F 67% 29.21 in 3.0 mi WNW 17.3 mph 36.8 mph 0.01 in Snow Blowing Snow
1:32 AM 12.2 °F -3.7 °F 3.2 °F 67% 29.22 in 7.0 mi WNW 15.0 mph 32.2 mph 0.01 in   Partly Cloudy
1:53 AM 12.0 °F -5.1 °F 3.0 °F 67% 29.27 in 4.0 mi WNW 17.3 mph 34.5 mph 0.02 in   Clear
2:18 AM 12.2 °F -7.9 °F 3.2 °F 67% 29.24 in 4.0 mi WNW 25.3 mph 39.1 mph 0.00 in   Clear
2:20 AM 12.2 °F -5.3 °F 3.2 °F 67% 29.24 in 2.5 mi WNW 18.4 mph 39.1 mph 0.00 in   Partly Cloudy
2:51 AM 10.4 °F -9.9 °F 1.4 °F 67% 29.24 in 1.5 mi WNW 24.2 mph 46.0 mph 0.00 in   Partly Cloudy
2:53 AM 10.9 °F -10.3 °F 1.9 °F 67% 29.28 in 1.5 mi WNW 27.6 mph 46.0 mph 0.00 in   Partly Cloudy
3:53 AM 10.9 °F -9.9 °F 1.0 °F 64% 29.32 in 3.0 mi WNW 26.5 mph 36.8 mph 0.01 in Snow Blowing Snow
4:43 AM 10.4 °F -9.5 °F -0.4 °F 62% 29.31 in 2.5 mi WNW 23.0 mph 39.1 mph 0.00 in Snow Blowing Snow
4:50 AM 10.4 °F -8.2 °F -0.4 °F 62% 29.32 in 3.0 mi WNW 19.6 mph 40.3 mph 0.00 in Snow Blowing Snow
4:53 AM 10.0 °F -9.5 °F -0.0 °F 64% 29.36 in 4.0 mi WNW 21.9 mph 40.3 mph 0.00 in Snow Blowing Snow
5:11 AM 10.4 °F -9.5 °F -0.4 °F 62% 29.33 in 3.0 mi WNW 23.0 mph 40.3 mph N/A Snow Blowing Snow
5:44 AM 8.6 °F -12.3 °F -0.4 °F 67% 29.34 in 2.5 mi WNW 24.2 mph 47.2 mph 0.00 in   Partly Cloudy
5:53 AM 9.0 °F -13.0 °F -0.9 °F 64% 29.38 in 2.0 mi WNW 27.6 mph 46.0 mph 0.00 in   Partly Cloudy
6:03 AM 8.6 °F -13.4 °F -2.2 °F 62% 29.35 in 1.8 mi West 27.6 mph 46.0 mph 0.00 in Snow Blowing Snow
6:19 AM 8.6 °F -11.9 °F -2.2 °F 62% 29.36 in 2.0 mi WNW 23.0 mph 50.6 mph 0.01 in Snow Light Snow
7:50 AM 8.6 °F -11.9 °F -2.2 °F 62% 29.42 in 2.5 mi WNW 23.0 mph 41.4 mph 0.00 in Snow Blowing Snow
7:53 AM 8.1 °F -14.2 °F -2.9 °F 61% 29.46 in 2.0 mi West 27.6 mph 43.7 mph 0.00 in Snow Blowing Snow
7:57 AM 8.6 °F -14.1 °F -2.2 °F 62% 29.42 in 1.5 mi WNW 29.9 mph 44.9 mph N/A Snow Blowing Snow
8:01 AM 8.6 °F -14.5 °F -2.2 °F 62% 29.43 in 1.0 mi WNW 31.1 mph 52.9 mph N/A Snow Blowing Snow
8:11 AM 8.6 °F -9.5 °F -2.2 °F 62% 29.44 in 1.5 mi WNW 17.3 mph 47.2 mph N/A Snow Blowing Snow
8:18 AM 8.6 °F -10.5 °F -2.2 °F 62% 29.45 in 3.0 mi WNW 19.6 mph 42.6 mph N/A Snow Blowing Snow
10:53 AM 17.1 °F -1.4 °F 1.9 °F 52% 29.52 in 6.0 mi WNW 25.3 mph 38.0 mph 0.00 in   Clear
11:53 AM 19.0 °F 2.4 °F 3.9 °F 52% 29.55 in 6.0 mi WNW 21.9 mph 39.1 mph 0.00 in   Scattered Clouds
12:53 PM 19.9 °F 3.5 °F 5.0 °F 52% 29.56 in 5.0 mi WNW 21.9 mph 46.0 mph 0.00 in   Overcast
1:12 PM 19.4 °F 2.1 °F 5.0 °F 54% 29.52 in 2.0 mi WNW 24.2 mph 46.0 mph 0.00 in Snow Blowing Snow
1:25 PM 21.2 °F 4.2 °F 5.0 °F 50% 29.52 in 5.0 mi WNW 25.3 mph 42.6 mph 0.00 in Snow Blowing Snow
1:53 PM 21.0 °F 3.9 °F 5.0 °F 50% 29.59 in 4.0 mi WNW 25.3 mph 46.0 mph 0.00 in   Mostly Cloudy
2:05 PM 21.2 °F 4.9 °F 5.0 °F 50% 29.55 in 2.0 mi WNW 23.0 mph 48.3 mph 0.00 in Snow Blowing Snow
2:15 PM 21.2 °F 6.0 °F 5.0 °F 50% 29.56 in 7.0 mi WNW 19.6 mph 41.4 mph 0.00 in   Scattered Clouds
2:53 PM 21.9 °F 4.8 °F 5.0 °F 48% 29.63 in 8.0 mi WNW 26.5 mph 42.6 mph 0.00 in   Clear
3:53 PM 21.9 °F 6.2 °F 3.9 °F 46% 29.66 in 9.0 mi WNW 21.9 mph 38.0 mph 0.00 in   Clear
4:53 PM 19.9 °F 2.2 °F 3.9 °F 50% 29.68 in 6.0 mi WNW 26.5 mph 47.2 mph 0.00 in   Haze
5:53 PM 19.0 °F 1.3 °F 3.9 °F 52% 29.74 in 9.0 mi WNW 25.3 mph 43.7 mph 0.00 in   Clear
6:53 PM 19.0 °F 2.4 °F 3.0 °F 50% 29.77 in 10.0 mi WNW 21.9 mph 40.3 mph 0.00 in   Clear
7:53 PM 19.0 °F 4.5 °F 3.0 °F 50% 29.81 in 10.0 mi WNW 16.1 mph 32.2 mph 0.00 in   Clear
8:53 PM 19.0 °F 2.7 °F 3.0 °F 50% 29.81 in 10.0 mi West 20.7 mph 34.5 mph N/A   Clear
9:53 PM 18.0 °F -0.2 °F 1.9 °F 50% 29.82 in 8.0 mi WNW 25.3 mph 41.4 mph 0.00 in   Clear
10:53 PM 18.0 °F 0.9 °F 1.0 °F 48% 29.85 in 9.0 mi WNW 21.9 mph 44.9 mph 0.00 in   Clear
11:53 PM 17.1 °F -1.0 °F 1.0 °F 50% 29.87 in 9.0 mi WNW 24.2 mph 41.4 mph 0.00 in   Clear